This is the latest recevied weather packets stored in our database for station/object N3DOU-1. If no packets are shown the sender has not sent any weather packets the latest 10 day(s).
| Time | Temp. | Humidity | Pressure | Rain* | Wind** | Luminosity | Snow |
|---|---|---|---|---|---|---|---|
| 1777813883 | 9.44° C | 55% | 1015.9 hPa | 0 mm | - | - | - |
| 1777812983 | 9.44° C | 57% | 1015.9 hPa | 0 mm | - | - | - |
| 1777812084 | 8.89° C | 57% | 1015.6 hPa | 0 mm | - | - | - |
| 1777811184 | 8.33° C | 59% | 1015.6 hPa | 0 mm | - | - | - |
| 1777810284 | 7.78° C | 60% | 1015.5 hPa | 0 mm | - | - | - |
| 1777809384 | 7.78° C | 63% | 1015.3 hPa | 0 mm | - | - | - |
| 1777808485 | 7.22° C | 64% | 1015.1 hPa | 0 mm | - | - | - |
| 1777807583 | 6.67° C | 64% | 1015 hPa | 0 mm | - | - | - |
| 1777806683 | 7.22° C | 64% | 1014.8 hPa | 0 mm | - | - | - |
| 1777805782 | 7.22° C | 64% | 1014.6 hPa | 0 mm | - | - | - |
| 1777804885 | 7.22° C | 64% | 1014.3 hPa | 0 mm | - | - | - |
| 1777803984 | 7.22° C | 65% | 1014 hPa | 0 mm | - | - | - |
| 1777803082 | 7.22° C | 66% | 1013.8 hPa | 0 mm | - | - | - |
| 1777802183 | 7.22° C | 67% | 1013.6 hPa | 0 mm | - | - | - |
| 1777801286 | 7.22° C | 68% | 1013.4 hPa | 0 mm | - | - | - |
| 1777800382 | 7.22° C | 68% | 1013.3 hPa | 0 mm | - | - | - |
| 1777799484 | 7.78° C | 68% | 1013.2 hPa | 0 mm | - | - | - |
| 1777798584 | 7.78° C | 68% | 1013.2 hPa | 0 mm | - | - | - |
| 1777797684 | 7.78° C | 68% | 1013 hPa | 0 mm | - | - | - |
| 1777796783 | 7.78° C | 67% | 1012.9 hPa | 0 mm | - | - | - |
| 1777795884 | 7.78° C | 68% | 1012.8 hPa | 0 mm | - | - | - |
| 1777794983 | 7.78° C | 67% | 1012.7 hPa | 0 mm | - | - | - |
| 1777794084 | 7.78° C | 68% | 1012.7 hPa | 0 mm | - | - | - |
| 1777793184 | 8.33° C | 67% | 1012.5 hPa | 0 mm | - | - | - |
| 1777792283 | 8.33° C | 68% | 1012.5 hPa | 0 mm | - | - | - |
* Rain latest hour (hover to see other rain measurements)
** Current wind speed in m/s (hover to see current wind gust speed)